Location: Unspecified
(0.0000°N, 0.0000°E)
Time: 15:25:11
(UTC+00:00)

deb Delta 126 - Pass Details

Date: 18 February 2026
Orbit: 1137 x 1258 km, 102.0° (Epoch: 8 March)

Event Time Altitude Azimuth Distance (km) Brightness Sun altitude
Rises 03:04:09 0° 162° (SSE) 4,190 ? -46.2°
Reaches altitude 10° 03:06:47 10° 160° (SSE) 3,230 ? -45.5°
Enters shadow 03:09:11 23° 158° (SSE) 2,390 ? -45.0°
